Time,TemperatureF,DewpointF,PressureIn,WindDirection,WindDirectionDegrees,WindSpeedMPH,WindSpeedGustMPH,Humidity,HourlyPrecipIn,Conditions,Clouds,dailyrainin,SoftwareType,DateUTC
2013-04-14 00:26:00,55.9,47.0,30.00,ESE,102,0.0,-999.0,71,-99.99,,,0.00,weatherlink.com 1.10,2013-04-14 04:26:00,
2013-04-14 00:37:00,54.9,47.0,30.01,ESE,102,0.0,-999.0,75,-99.99,,,0.00,weatherlink.com 1.10,2013-04-14 04:37:00,
2013-04-14 00:53:00,54.4,47.0,30.01,ESE,102,0.0,-999.0,77,-99.99,,,0.00,weatherlink.com 1.10,2013-04-14 04:53:00,
2013-04-14 01:26:00,54.0,47.0,30.01,ESE,102,0.0,-999.0,78,-99.99,,,0.00,weatherlink.com 1.10,2013-04-14 05:26:00,
2013-04-14 01:37:00,52.6,47.0,30.02,ESE,102,0.0,-999.0,80,-99.99,,,0.00,weatherlink.com 1.10,2013-04-14 05:37:00,
2013-04-14 01:53:00,52.1,46.0,30.02,ESE,102,0.0,-999.0,81,-99.99,,,0.00,weatherlink.com 1.10,2013-04-14 05:53:00,
2013-04-14 02:27:00,51.9,46.0,30.02,ESE,102,0.0,-999.0,81,-99.99,,,0.00,weatherlink.com 1.10,2013-04-14 06:27:00,
2013-04-14 02:38:00,50.8,46.0,30.02,ESE,102,0.0,-999.0,83,-99.99,,,0.00,weatherlink.com 1.10,2013-04-14 06:38:00,
2013-04-14 02:53:00,50.6,46.0,30.02,ESE,102,0.0,-999.0,85,-99.99,,,0.00,weatherlink.com 1.10,2013-04-14 06:53:00,
2013-04-14 03:26:00,50.6,46.0,30.02,ESE,102,0.0,-999.0,85,-99.99,,,0.00,weatherlink.com 1.10,2013-04-14 07:26:00,
2013-04-14 03:37:00,50.3,46.0,30.02,ESE,102,0.0,-999.0,86,-99.99,,,0.00,weatherlink.com 1.10,2013-04-14 07:37:00,
2013-04-14 03:52:00,50.1,46.0,30.03,ESE,102,0.0,-999.0,86,-99.99,,,0.00,weatherlink.com 1.10,2013-04-14 07:52:00,
2013-04-14 04:26:00,49.9,46.0,30.03,ESE,102,0.0,-999.0,87,-99.99,,,0.00,weatherlink.com 1.10,2013-04-14 08:26:00,
2013-04-14 04:37:00,49.1,45.0,30.04,ESE,102,0.0,-999.0,87,-99.99,,,0.00,weatherlink.com 1.10,2013-04-14 08:37:00,
2013-04-14 04:52:00,48.9,46.0,30.04,ESE,102,0.0,-999.0,88,-99.99,,,0.00,weatherlink.com 1.10,2013-04-14 08:52:00,
2013-04-14 05:26:00,48.6,45.0,30.04,ESE,102,0.0,-999.0,88,-99.99,,,0.00,weatherlink.com 1.10,2013-04-14 09:26:00,
2013-04-14 05:37:00,47.8,45.0,30.05,ESE,102,0.0,-999.0,89,-99.99,,,0.00,weatherlink.com 1.10,2013-04-14 09:37:00,
2013-04-14 05:52:00,47.5,45.0,30.05,ESE,102,0.0,-999.0,90,-99.99,,,0.00,weatherlink.com 1.10,2013-04-14 09:52:00,
2013-04-14 06:26:00,47.2,45.0,30.05,ESE,102,0.0,-999.0,90,-99.99,,,0.00,weatherlink.com 1.10,2013-04-14 10:26:00,
2013-04-14 06:37:00,46.7,44.0,30.06,ESE,102,0.0,-999.0,91,-99.99,,,0.00,weatherlink.com 1.10,2013-04-14 10:37:00,
2013-04-14 06:53:00,46.4,44.0,30.07,ESE,102,0.0,-999.0,91,-99.99,,,0.00,weatherlink.com 1.10,2013-04-14 10:53:00,
2013-04-14 07:26:00,46.3,44.0,30.07,ESE,102,0.0,-999.0,92,-99.99,,,0.00,weatherlink.com 1.10,2013-04-14 11:26:00,
2013-04-14 07:37:00,46.5,44.0,30.08,ESE,102,0.0,-999.0,92,-99.99,,,0.00,weatherlink.com 1.10,2013-04-14 11:37:00,
2013-04-14 07:52:00,46.8,45.0,30.09,ESE,102,0.0,-999.0,93,-99.99,,,0.00,weatherlink.com 1.10,2013-04-14 11:52:00,
2013-04-14 08:26:00,47.1,45.0,30.09,ESE,102,0.0,-999.0,93,-99.99,,,0.00,weatherlink.com 1.10,2013-04-14 12:26:00,
2013-04-14 08:37:00,49.6,48.0,30.10,ESE,102,0.0,-999.0,93,-99.99,,,0.00,weatherlink.com 1.10,2013-04-14 12:37:00,
2013-04-14 08:52:00,51.2,49.0,30.10,ESE,102,0.0,-999.0,91,-99.99,,,0.00,weatherlink.com 1.10,2013-04-14 12:52:00,
2013-04-14 09:37:00,58.0,46.0,30.10,ESE,102,0.0,-999.0,64,-99.99,,,0.00,weatherlink.com 1.10,2013-04-14 13:37:00,
2013-04-14 09:52:00,60.4,45.0,30.10,ESE,102,0.0,-999.0,58,-99.99,,,0.00,weatherlink.com 1.10,2013-04-14 13:52:00,
2013-04-14 10:27:00,61.8,46.0,30.11,ESE,102,0.0,-999.0,56,-99.99,,,0.00,weatherlink.com 1.10,2013-04-14 14:27:00,
2013-04-14 10:38:00,66.5,46.0,30.10,ESE,102,0.0,-999.0,48,-99.99,,,0.00,weatherlink.com 1.10,2013-04-14 14:38:00,
2013-04-14 10:53:00,67.8,45.0,30.10,South,180,0.0,-999.0,44,-99.99,,,0.00,weatherlink.com 1.10,2013-04-14 14:53:00,
2013-04-14 11:37:00,71.5,44.0,30.10,East,99,0.0,-999.0,37,-99.99,,,0.00,weatherlink.com 1.10,2013-04-14 15:37:00,
2013-04-14 11:52:00,73.3,43.0,30.09,ESE,120,0.0,-999.0,34,-99.99,,,0.00,weatherlink.com 1.10,2013-04-14 15:52:00,
2013-04-14 12:27:00,73.9,41.0,30.09,South,188,0.0,-999.0,30,-99.99,,,0.00,weatherlink.com 1.10,2013-04-14 16:27:00,
2013-04-14 12:38:00,75.7,40.0,30.08,SE,129,0.0,-999.0,28,-99.99,,,0.00,weatherlink.com 1.10,2013-04-14 16:38:00,
2013-04-14 12:53:00,76.5,39.0,30.08,East,88,0.0,-999.0,26,-99.99,,,0.00,weatherlink.com 1.10,2013-04-14 16:53:00,
2013-04-14 13:26:00,77.0,42.0,30.08,East,88,0.0,-999.0,29,-99.99,,,0.00,weatherlink.com 1.10,2013-04-14 17:26:00,
2013-04-14 13:38:00,77.7,41.0,30.07,East,86,0.0,-999.0,27,-99.99,,,0.00,weatherlink.com 1.10,2013-04-14 17:38:00,
2013-04-14 13:53:00,78.2,41.0,30.07,East,85,0.0,-999.0,26,-99.99,,,0.00,weatherlink.com 1.10,2013-04-14 17:53:00,
2013-04-14 14:38:00,79.3,41.0,30.05,East,85,2.0,-999.0,25,-99.99,,,0.00,weatherlink.com 1.10,2013-04-14 18:38:00,
2013-04-14 14:53:00,79.9,42.0,30.04,East,88,2.0,-999.0,26,-99.99,,,0.00,weatherlink.com 1.10,2013-04-14 18:53:00,
2013-04-14 15:38:00,80.2,42.0,30.02,East,83,0.0,-999.0,26,-99.99,,,0.00,weatherlink.com 1.10,2013-04-14 19:38:00,
2013-04-14 15:53:00,79.6,40.0,30.02,ENE,59,0.0,-999.0,24,-99.99,,,0.00,weatherlink.com 1.10,2013-04-14 19:53:00,
2013-04-14 16:26:00,79.6,41.0,30.02,East,92,0.0,-999.0,25,-99.99,,,0.00,weatherlink.com 1.10,2013-04-14 20:26:00,
2013-04-14 16:37:00,78.8,43.0,30.01,ENE,58,0.0,-999.0,28,-99.99,,,0.00,weatherlink.com 1.10,2013-04-14 20:37:00,
2013-04-14 16:52:00,78.4,42.0,30.02,East,93,1.0,-999.0,27,-99.99,,,0.00,weatherlink.com 1.10,2013-04-14 20:52:00,
2013-04-14 17:27:00,78.1,42.0,30.02,East,94,0.0,-999.0,28,-99.99,,,0.00,weatherlink.com 1.10,2013-04-14 21:27:00,
2013-04-14 17:38:00,77.1,42.0,30.03,East,94,0.0,-999.0,29,-99.99,,,0.00,weatherlink.com 1.10,2013-04-14 21:38:00,
2013-04-14 17:53:00,76.7,43.0,30.04,East,94,0.0,-999.0,30,-99.99,,,0.00,weatherlink.com 1.10,2013-04-14 21:53:00,
2013-04-14 18:26:00,76.4,43.0,30.04,East,94,1.0,-999.0,30,-99.99,,,0.00,weatherlink.com 1.10,2013-04-14 22:26:00,
2013-04-14 18:37:00,75.4,43.0,30.04,East,94,0.0,-999.0,32,-99.99,,,0.00,weatherlink.com 1.10,2013-04-14 22:37:00,
2013-04-14 18:52:00,75.1,44.0,30.04,East,94,0.0,-999.0,33,-99.99,,,0.00,weatherlink.com 1.10,2013-04-14 22:52:00,
2013-04-14 19:26:00,74.8,44.0,30.04,East,94,0.0,-999.0,33,-99.99,,,0.00,weatherlink.com 1.10,2013-04-14 23:26:00,
2013-04-14 19:37:00,73.2,47.0,30.04,East,94,0.0,-999.0,39,-99.99,,,0.00,weatherlink.com 1.10,2013-04-14 23:37:00,
2013-04-14 19:52:00,72.4,45.0,30.04,East,94,0.0,-999.0,38,-99.99,,,0.00,weatherlink.com 1.10,2013-04-14 23:52:00,
2013-04-14 20:26:00,72.2,47.0,30.04,East,94,0.0,-999.0,41,-99.99,,,0.00,weatherlink.com 1.10,2013-04-15 00:26:00,
2013-04-14 20:37:00,71.6,47.0,30.04,East,94,0.0,-999.0,41,-99.99,,,0.00,weatherlink.com 1.10,2013-04-15 00:37:00,
2013-04-14 20:52:00,71.6,47.0,30.03,East,94,0.0,-999.0,42,-99.99,,,0.00,weatherlink.com 1.10,2013-04-15 00:52:00,
2013-04-14 21:26:00,71.4,48.0,30.03,East,94,0.0,-999.0,43,-99.99,,,0.00,weatherlink.com 1.10,2013-04-15 01:26:00,
2013-04-14 21:37:00,70.5,50.0,30.04,East,94,0.0,-999.0,48,-99.99,,,0.00,weatherlink.com 1.10,2013-04-15 01:37:00,
2013-04-14 21:52:00,70.3,50.0,30.03,East,94,0.0,-999.0,48,-99.99,,,0.00,weatherlink.com 1.10,2013-04-15 01:52:00,
2013-04-14 22:37:00,69.5,51.0,30.03,East,94,0.0,-999.0,53,-99.99,,,0.00,weatherlink.com 1.10,2013-04-15 02:37:00,
2013-04-14 22:52:00,69.3,52.0,30.03,East,94,0.0,-999.0,54,-99.99,,,0.00,weatherlink.com 1.10,2013-04-15 02:52:00,
2013-04-14 23:26:00,69.1,52.0,30.03,East,94,0.0,-999.0,54,-99.99,,,0.00,weatherlink.com 1.10,2013-04-15 03:26:00,
2013-04-14 23:37:00,67.9,54.0,30.05,East,94,0.0,-999.0,61,-99.99,,,0.00,weatherlink.com 1.10,2013-04-15 03:37:00,
2013-04-14 23:52:00,67.0,55.0,30.06,East,94,0.0,-999.0,66,-99.99,,,0.00,weatherlink.com 1.10,2013-04-15 03:52:00,